TimeCDT,TemperatureF,Dew PointF,Humidity,Sea Level PressureIn,VisibilityMPH,Wind Direction,Wind SpeedMPH,Gust SpeedMPH,PrecipitationIn,Events,Conditions,WindDirDegrees,DateUTC
12:15 AM,18.3,15.1,87,30.30,10.0,Calm,Calm,-,N/A,,Clear,0,2013-03-20 05:15:00
12:35 AM,16.7,13.5,87,30.31,10.0,West,5.8,-,N/A,,Clear,270,2013-03-20 05:35:00
12:55 AM,16.2,13.1,88,30.30,10.0,West,4.6,-,N/A,,Clear,270,2013-03-20 05:55:00
1:15 AM,16.2,13.1,88,30.30,10.0,WSW,3.5,-,N/A,,Clear,250,2013-03-20 06:15:00
1:35 AM,15.4,12.6,88,30.30,10.0,West,3.5,-,N/A,,Clear,280,2013-03-20 06:35:00
1:55 AM,15.6,12.7,88,30.29,10.0,West,3.5,-,N/A,,Clear,260,2013-03-20 06:55:00
2:15 AM,14.9,12.0,88,30.29,10.0,Calm,Calm,-,N/A,,Clear,0,2013-03-20 07:15:00
2:35 AM,13.6,10.6,88,30.29,10.0,West,3.5,-,N/A,,Clear,270,2013-03-20 07:35:00
2:55 AM,14.7,11.7,88,30.28,10.0,West,3.5,-,N/A,,Clear,270,2013-03-20 07:55:00
3:15 AM,14.0,10.9,88,30.28,10.0,WSW,5.8,-,N/A,,Clear,250,2013-03-20 08:15:00
3:35 AM,14.7,11.3,86,30.27,10.0,WSW,6.9,-,N/A,,Clear,240,2013-03-20 08:35:00
3:55 AM,14.7,11.8,88,30.25,10.0,WSW,5.8,-,N/A,,Clear,250,2013-03-20 08:55:00
4:15 AM,14.0,11.1,88,30.24,10.0,WSW,6.9,-,N/A,,Clear,240,2013-03-20 09:15:00
4:35 AM,14.0,10.9,88,30.24,10.0,WSW,6.9,-,N/A,,Clear,250,2013-03-20 09:35:00
4:55 AM,14.5,11.7,88,30.22,10.0,WSW,6.9,-,N/A,,Clear,240,2013-03-20 09:55:00
5:15 AM,14.5,11.3,87,30.21,10.0,WSW,6.9,-,N/A,,Clear,240,2013-03-20 10:15:00
5:35 AM,13.5,10.6,88,30.21,10.0,SW,8.1,-,N/A,,Clear,230,2013-03-20 10:35:00
5:55 AM,14.9,11.3,86,30.20,10.0,SW,6.9,-,N/A,,Clear,230,2013-03-20 10:55:00
6:15 AM,14.0,10.4,86,30.20,10.0,SW,4.6,-,N/A,,Clear,230,2013-03-20 11:15:00
6:35 AM,13.6,10.0,86,30.20,10.0,WSW,4.6,-,N/A,,Clear,240,2013-03-20 11:35:00
6:55 AM,13.8,10.6,87,30.19,10.0,SW,4.6,-,N/A,,Clear,230,2013-03-20 11:55:00
7:15 AM,14.0,10.6,86,30.18,10.0,SSW,4.6,-,N/A,,Clear,210,2013-03-20 12:15:00
7:35 AM,11.7,8.4,87,30.17,10.0,SSW,5.8,-,N/A,,Clear,200,2013-03-20 12:35:00
7:55 AM,14.0,11.3,89,30.17,10.0,South,9.2,-,N/A,,Clear,190,2013-03-20 12:55:00
8:15 AM,16.7,14.2,90,30.17,10.0,SSW,9.2,-,N/A,,Clear,210,2013-03-20 13:15:00
8:35 AM,19.0,16.3,89,30.16,10.0,SSW,9.2,-,N/A,,Clear,200,2013-03-20 13:35:00
8:55 AM,21.7,19.4,91,30.16,10.0,SSW,9.2,-,N/A,,Clear,200,2013-03-20 13:55:00
9:15 AM,24.4,21.7,89,30.15,10.0,SSW,11.5,-,N/A,,Clear,200,2013-03-20 14:15:00
9:35 AM,27.0,23.5,87,30.14,10.0,South,10.4,-,N/A,,Clear,190,2013-03-20 14:35:00
9:55 AM,28.9,24.8,84,30.13,10.0,South,10.4,-,N/A,,Clear,190,2013-03-20 14:55:00
10:15 AM,31.6,24.4,75,30.13,10.0,South,13.8,-,N/A,,Clear,190,2013-03-20 15:15:00
10:35 AM,33.4,23.0,66,30.12,10.0,South,16.1,-,N/A,,Clear,190,2013-03-20 15:35:00
10:55 AM,34.7,20.3,56,30.10,10.0,SSW,17.3,-,N/A,,Clear,200,2013-03-20 15:55:00
11:15 AM,35.1,20.8,56,30.08,10.0,South,16.1,23.0,N/A,,Clear,190,2013-03-20 16:15:00
11:35 AM,37.2,20.1,50,30.07,10.0,South,17.3,-,N/A,,Clear,180,2013-03-20 16:35:00
11:55 AM,38.8,19.0,45,30.06,10.0,South,20.7,-,N/A,,Clear,180,2013-03-20 16:55:00
12:15 PM,39.7,18.5,42,30.05,10.0,South,18.4,-,N/A,,Clear,170,2013-03-20 17:15:00
12:35 PM,41.4,18.7,40,30.04,10.0,SSW,18.4,-,N/A,,Clear,200,2013-03-20 17:35:00
12:55 PM,42.8,17.6,36,30.02,10.0,South,16.1,25.3,N/A,,Clear,180,2013-03-20 17:55:00
1:15 PM,44.1,17.1,34,30.00,10.0,South,19.6,24.2,N/A,,Clear,170,2013-03-20 18:15:00
1:35 PM,45.0,16.9,32,29.98,10.0,South,18.4,26.5,N/A,,Clear,180,2013-03-20 18:35:00
1:55 PM,47.3,16.7,30,29.96,10.0,South,16.1,24.2,N/A,,Clear,170,2013-03-20 18:55:00
2:15 PM,47.8,16.9,29,29.95,10.0,South,19.6,24.2,N/A,,Clear,170,2013-03-20 19:15:00
2:35 PM,49.3,16.5,27,29.93,10.0,South,18.4,26.5,N/A,,Clear,190,2013-03-20 19:35:00
2:55 PM,48.9,16.0,27,29.92,10.0,South,20.7,24.2,N/A,,Clear,180,2013-03-20 19:55:00
3:15 PM,50.5,15.6,25,29.90,10.0,South,16.1,-,N/A,,Scattered Clouds,170,2013-03-20 20:15:00
3:35 PM,51.6,13.5,22,29.88,10.0,South,19.6,24.2,N/A,,Mostly Cloudy,180,2013-03-20 20:35:00
3:55 PM,53.1,12.6,20,29.86,10.0,South,17.3,24.2,N/A,,Overcast,190,2013-03-20 20:55:00
4:15 PM,53.6,12.9,20,29.85,10.0,South,19.6,26.5,N/A,,Overcast,190,2013-03-20 21:15:00
4:35 PM,53.1,12.4,20,29.84,10.0,South,17.3,24.2,N/A,,Overcast,170,2013-03-20 21:35:00
4:55 PM,54.5,12.0,19,29.84,10.0,SSE,17.3,23.0,N/A,,Scattered Clouds,160,2013-03-20 21:55:00
5:15 PM,55.2,11.1,17,29.83,10.0,South,19.6,-,N/A,,Scattered Clouds,170,2013-03-20 22:15:00
5:35 PM,54.1,10.8,18,29.82,10.0,South,16.1,-,N/A,,Clear,180,2013-03-20 22:35:00
5:55 PM,55.8,10.2,16,29.81,10.0,South,19.6,25.3,N/A,,Clear,180,2013-03-20 22:55:00
6:15 PM,54.9,11.7,18,29.80,10.0,South,13.8,-,N/A,,Scattered Clouds,180,2013-03-20 23:15:00
6:35 PM,53.6,11.3,19,29.80,10.0,South,12.7,-,N/A,,Mostly Cloudy,190,2013-03-20 23:35:00
6:55 PM,53.1,9.1,17,29.79,10.0,SW,13.8,-,N/A,,Mostly Cloudy,220,2013-03-20 23:55:00
7:15 PM,52.0,9.5,18,29.79,10.0,SW,11.5,-,N/A,,Mostly Cloudy,220,2013-03-21 00:15:00
7:35 PM,51.3,10.4,19,29.79,10.0,SSW,15.0,18.4,N/A,,Overcast,210,2013-03-21 00:35:00
7:55 PM,51.8,19.0,28,29.78,10.0,West,11.5,-,N/A,,Overcast,260,2013-03-21 00:55:00
8:15 PM,50.5,19.6,30,29.79,10.0,West,6.9,-,N/A,,Overcast,280,2013-03-21 01:15:00
8:35 PM,48.6,18.5,30,29.79,10.0,WSW,4.6,-,N/A,,Overcast,240,2013-03-21 01:35:00
8:55 PM,47.7,15.3,27,29.79,10.0,SW,4.6,-,N/A,,Overcast,230,2013-03-21 01:55:00
9:15 PM,45.7,14.0,28,29.78,10.0,SE,4.6,-,N/A,,Overcast,130,2013-03-21 02:15:00
9:35 PM,44.1,13.8,29,29.76,10.0,SSE,9.2,-,N/A,,Mostly Cloudy,150,2013-03-21 02:35:00
9:55 PM,42.8,13.8,31,29.76,10.0,South,6.9,-,N/A,,Mostly Cloudy,170,2013-03-21 02:55:00
10:15 PM,41.4,14.0,33,29.75,10.0,South,6.9,-,N/A,,Overcast,170,2013-03-21 03:15:00
10:35 PM,41.9,14.9,34,29.75,10.0,South,6.9,-,N/A,,Overcast,170,2013-03-21 03:35:00
10:55 PM,42.6,15.3,33,29.75,10.0,South,8.1,-,N/A,,Overcast,170,2013-03-21 03:55:00
11:15 PM,41.9,15.6,35,29.75,10.0,South,5.8,-,N/A,,Overcast,180,2013-03-21 04:15:00
11:35 PM,41.9,15.8,35,29.74,10.0,South,4.6,-,N/A,,Overcast,180,2013-03-21 04:35:00
11:55 PM,40.8,16.5,37,29.73,10.0,SSW,8.1,-,N/A,,Overcast,200,2013-03-21 04:55:00